Hugo Marquez

Chefscout - Veracruz
3 Apr 2027
Samstag
Verarbeitung

Persönlichkeit

Anpassungsfähigkeit (14) Ehrgeiz (6) Kontroverse (7) Loyalität (8) Druck (1) Professionalität (7) Fairness (18) Temperament (12)

Profil

Trainerstil Demokratisch
Lizenz Kontinentale A
Entschlossenheit 11
Menschenführung 8
Motivation 8
Disziplin 10
Arbeitszufriedenheit
78%
Ermüdung
0%
Rolle Chefscout
Gehalt 72.9K p/W
Vertrag 14.03.2028

Leistung

Verhalten Gut
Trainingseffektivität
35%
Spielerentwicklung
50%
Verletzungsprävention
55%
Taktische Umsetzung
45%

Letzte Ereignisse

Nahm an einer Scouting-Besprechung teil jetzt
Empfahl ein Transferziel jetzt
Nahm an einer Scouting-Besprechung teil jetzt
Spieler begutachtet 7T her
Spieler begutachtet 7T her
Spieler begutachtet 7T her
Spieler begutachtet 7T her
Spieler begutachtet 7T her

Aktuell beobachtet

170
Spieler Verein Status Fähigkeit Vertrauen Beobachtet Zuletzt beobachtet Letzte Stimme
Vasco Santos Oliveirense Aktiv 97 / 90 40% 1 02.04.2027 -
Bernardo Lima Porto Aktiv 100 / 97 40% 1 02.04.2027 -
Yassine Khalifi Charleroi Aktiv 105 / 99 40% 1 31.03.2027 -
Pietro Reggiori Pro Patria Aktiv 71 / 108 40% 1 31.03.2027 -
Iqraam Rayners Mamelodi Sundowns Aktiv 123 / 139 40% 2 28.03.2027 -
Alexis Vossah Toulouse FC Aktiv 113 / 127 40% 1 28.03.2027 -
Itumeleng Zungu Free State Stars Aktiv 119 / 137 40% 1 28.03.2027 -
Danyil Alefirenko Chornomorets Aktiv 93 / 93 40% 1 28.03.2027 -
Jhojan Julio Queretaro Aktiv 109 / 118 40% 4 27.03.2027 -
Kwame Opoku Asante Kotoko Aktiv 107 / 105 40% 1 27.03.2027 -
Ismael Díaz Leon Aktiv 119 / 123 40% 3 26.03.2027 -
Iwan Morgan Grimsby Town Aktiv 94 / 119 40% 1 26.03.2027 -
Shayne Lavery Cambridge United Aktiv 92 / 105 40% 2 25.03.2027 -
John Okoye Ebuka Ittihad Aktiv 132 / 121 40% 1 25.03.2027 -
Felix Appiah WAFA Aktiv 94 / 90 40% 1 24.03.2027 -
Pape Diong Westerlo Aktiv 99 / 116 40% 1 24.03.2027 -
Fabrizio Cavegn Bristol Rovers Aktiv 112 / 106 40% 1 22.03.2027 -
Aaron Drinan Swindon Town Aktiv 105 / 102 40% 1 22.03.2027 -
Achraf Bencharki Al Ahly Aktiv 112 / 127 40% 3 21.03.2027 -
Duk Atlas Aktiv 121 / 121 40% 1 21.03.2027 -
Martín Pino Antalyaspor Aktiv 126 / 117 40% 8 20.03.2027 -
Florián Monzón Atlas Aktiv 138 / 131 40% 5 19.03.2027 -
Nardin Mulahusejnović Vojvodina Aktiv 121 / 117 40% 1 19.03.2027 -
Eliás Montiel Pachuca Aktiv 118 / 138 40% 1 19.03.2027 -
Moncef Zekri Sporting CP Aktiv 100 / 118 40% 1 19.03.2027 -
Lucas Di Yorio Santos Laguna Aktiv 124 / 126 40% 2 17.03.2027 -
Salah Mohsen El Masry Abgelehnt 118 / 118 40% 2 17.03.2027 Mehr Infos nötig
Gopolang Taunyane Wa All Stars Aktiv 88 / 94 40% 3 17.03.2027 -
Alejo Fernández Kayserispor Aktiv 110 / 100 40% 1 17.03.2027 -
Abdul Bukari WAFA Aktiv 82 / 100 40% 1 16.03.2027 -
Sergio Quintero La Equidad Aktiv 120 / 134 40% 1 16.03.2027 -
Siphesihle Sithole Inter Allies Aktiv 91 / 94 40% 1 15.03.2027 -
Diber Cambindo Leon Abgelehnt 125 / 119 40% 5 12.03.2027 Ablehnen
Lucas Duarte Felgueiras Aktiv 99 / 90 40% 1 12.03.2027 -
Mourad Tijuana Abgelehnt 130 / 129 40% 2 11.03.2027 Mehr Infos nötig
Leandro Martins Benfica Aktiv 93 / 112 40% 1 11.03.2027 -
Lucas Jetten Cambuur Aktiv 107 / 111 40% 1 08.03.2027 -
Itumeleng Tau Ajax Cape Town Aktiv 122 / 99 40% 3 06.03.2027 -
Mousa Meunier KV Oostende Aktiv 121 / 125 40% 2 04.03.2027 -
Wandile Duba Bidvest Wits Aktiv 85 / 117 40% 3 03.03.2027 -
Martín Álvarez Barnsley Aktiv 122 / 110 40% 1 03.03.2027 -
Diego Valencia Gornik Leczna Aktiv 133 / 113 40% 5 02.03.2027 -
Domi Berlanga Vicenza Aktiv 95 / 109 40% 1 02.03.2027 -
Agustín Ramírez Inter Aktiv 115 / 111 40% 2 08.02.2027 -
Peter Federico Gornik Zabrze Aktiv 135 / 126 40% 1 08.02.2027 -
Relebohile Mofokeng Orlando Pirates Aktiv 140 / 115 40% 1 07.02.2027 -
Franco Díaz KV Oostende Aktiv 127 / 109 40% 2 06.02.2027 -
Teboho Tau Ajax Cape Town Aktiv 121 / 102 40% 1 06.02.2027 -
Francisco González Tijuana Aktiv 106 / 110 40% 2 05.02.2027 -
Akinkunmi Amoo Ismaily Aktiv 104 / 104 40% 1 05.02.2027 -
Marley Aké Zulte Waregem Aktiv 101 / 99 40% 1 03.02.2027 -
Malick Mbaye Zulte Waregem Aktiv 107 / 125 40% 1 03.02.2027 -
Alejo Dramisino Honved Aktiv 104 / 128 40% 2 02.02.2027 -
César Huerta Pumas UNAM Aktiv 132 / 114 40% 1 02.02.2027 -
Erick Ngcobo Black Aces Aktiv 121 / 110 40% 2 01.02.2027 -
Ibrahim Tarek Masr El Makasa Aktiv 119 / 137 40% 1 01.02.2027 -
Santiago Rodríguez Gimnasia y Esgrima Aktiv 129 / 111 40% 4 25.01.2027 -
Santiago Hezze Stoke City Aktiv 132 / 133 62% 1 18.01.2027 Befürworten
Brayan Gil Baltika Aktiv 123 / 106 40% 1 15.01.2027 -
Alexander Díaz Deportivo Riestra Aktiv 108 / 119 40% 7 01.01.2027 -
Sayfallah Ltaief Cracovia Aktiv 108 / 128 40% 1 01.01.2027 -
Josh Windass Wrexham Aktiv 139 / 125 40% 3 31.12.2026 -
Jerónimo Porto Lapegüe Slask Aktiv 116 / 94 40% 3 30.12.2026 -
Malik Mothersille Stockport County Aktiv 131 / 120 40% 1 30.12.2026 -
José Barreto Fehervar Abgelehnt 115 / 117 40% 6 29.12.2026 Ablehnen
Angelo Gattermayer Wolfsberger AC Aktiv 123 / 110 40% 1 29.12.2026 -
Danilo Gómez Adana Demirspor Aktiv 106 / 92 40% 1 28.12.2026 -
Emerson Batalla Atletico Bucaramanga Aktiv 143 / 126 40% 1 27.12.2026 Mehr Infos nötig
David Barbona Defensa y Justicia Aktiv 116 / 127 40% 2 26.12.2026 Mehr Infos nötig
Daniel Phillips Stevenage Abgelehnt 124 / 113 40% 1 24.12.2026 Mehr Infos nötig
Tomás Ribeiro Cultural Leonesa Aktiv 123 / 109 40% 1 24.12.2026 -
Darío Ramírez Real Sociedad Aktiv 95 / 98 40% 1 23.12.2026 -
Junior Hernández AIK Aktiv 106 / 101 40% 1 22.12.2026 -
Saba Sazonov Juve Stabia Aktiv 106 / 119 40% 1 22.12.2026 -
Dani Gómez Zaragoza Aktiv 120 / 127 40% 1 21.12.2026 -
Siro Rosané Estudiantes Aktiv 113 / 131 40% 1 20.12.2026 -
Ognjen Gašević CSKA 1948 Aktiv 107 / 112 40% 1 20.12.2026 -
Jefry Zapata Once Caldas Aktiv 116 / 115 40% 2 16.12.2026 -
Adnan Courtois KV Oostende Aktiv 138 / 150 40% 3 14.12.2026 -
Tomás Silva Platense Aktiv 130 / 126 40% 1 13.12.2026 -
Santiago Simón Toluca Aktiv 124 / 130 40% 1 13.12.2026 -
Jorge Obregón Deportivo Pasto Aktiv 113 / 117 40% 1 13.12.2026 -
Mauro Valiente Estudiantes Aktiv 117 / 124 40% 2 12.12.2026 -
Edwuin Cetré Estudiantes Aktiv 123 / 111 40% 1 10.12.2026 -
Alejandro Piedrahita Deportivo Pereira Aktiv 107 / 131 40% 4 09.12.2026 -
Marcelo Torres Gimnasia La Plata Aktiv 101 / 125 40% 2 08.12.2026 -
Nicolás Fernández Belgrano Aktiv 111 / 114 40% 1 07.12.2026 -
Yoshan Valois Lanús Aktiv 126 / 112 40% 2 06.12.2026 -
Alfredo Morelos Atletico Nacional Aktiv 119 / 124 40% 1 04.12.2026 -
Lucas Passerini Belgrano Aktiv 121 / 124 40% 3 02.12.2026 -
Etiosa Ighodaro Kaizer Chiefs Aktiv 117 / 107 40% 2 01.12.2026 -
Franco Fagúndez Estudiantes Aktiv 109 / 120 40% 5 01.12.2026 -
Luca Martínez Dupuy Godoy Cruz Aktiv 121 / 129 40% 1 30.11.2026 -
Juan Cruz de los Santos Nacional Aktiv 121 / 117 40% 1 30.11.2026 -
Nicolás Cordero Aldosivi Aktiv 123 / 116 40% 2 29.11.2026 -
Gastón Benedetti Estudiantes Aktiv 130 / 128 40% 1 28.11.2026 -
Jermein Peña Junior Aktiv 107 / 131 40% 1 28.11.2026 -
Facundo Mansilla Central Córdoba SdE Aktiv 109 / 117 40% 1 27.11.2026 -
Diego Valdés Vélez Aktiv 127 / 146 40% 3 25.11.2026 -
Joaquín Correa Estudiantes Aktiv 143 / 129 40% 1 23.11.2026 -
Nicolás Contín Gimnasia y Tiro Aktiv 124 / 125 40% 1 22.11.2026 -
Facundo Suárez Instituto Aktiv 135 / 113 40% 2 21.11.2026 -
Camilo Durán Bloemfontein Celtic Aktiv 117 / 119 40% 1 21.11.2026 -
Talisca Fenerbahce Aktiv 134 / 137 40% 1 19.11.2026 -
James Morris Leyton Orient Aktiv 121 / 109 40% 1 19.11.2026 -
Joaquín García Vélez Aktiv 141 / 112 40% 1 19.11.2026 -
Juan Esteban Ávalo Aguilas Doradas Aktiv 124 / 124 40% 1 18.11.2026 -
Leandro Andrade Polissia Aktiv 150 / 139 40% 1 18.11.2026 -
Álex Arce Independiente Rivadavia Aktiv 133 / 118 40% 2 17.11.2026 -
Brayan León Mamelodi Sundowns Aktiv 121 / 100 40% 2 17.11.2026 -
Tomás O'Connor Gimnasia y Esgrima Aktiv 119 / 136 40% 1 14.11.2026 -
Nicolás Retamar Ferro Carril Oeste Aktiv 99 / 117 40% 1 14.11.2026 -
Ramiro Ruiz Rodríguez Atlético Tucumán Aktiv 121 / 136 40% 2 12.11.2026 -
Alexis Cuello San Lorenzo Aktiv 107 / 128 40% 3 12.11.2026 -
Facundo Pons San Martín Aktiv 120 / 120 40% 1 12.11.2026 -
Octavio Bianchi HNK Vukovar 1991 Aktiv 127 / 127 40% 3 11.11.2026 -
Tomás Bottari Independiente Rivadavia Aktiv 107 / 105 40% 1 10.11.2026 -
Rodrigo Herrera Newell's Old Boys Aktiv 111 / 124 40% 1 10.11.2026 -
Ezequiel Almirón Estudiantes Aktiv 102 / 122 40% 2 09.11.2026 -
Jáder Obrian Santa Fe Aktiv 131 / 129 40% 1 09.11.2026 -
Tomás Molina Argentinos Juniors Aktiv 121 / 124 40% 1 08.11.2026 -
Ignacio Russo Tigre Aktiv 115 / 139 40% 1 08.11.2026 -
Rok Zajc NK Domzale Aktiv 115 / 126 40% 1 04.11.2026 -
Gonzalo Carneiro Dinamo Zagreb Aktiv 120 / 124 40% 4 02.11.2026 -
Tomáš Chorý Slavia Prague Aktiv 131 / 154 40% 1 01.11.2026 -
Rodin Quiñónes Dinamo Batumi Aktiv 111 / 121 40% 4 30.10.2026 -
Leandro Suhr Boston River Aktiv 130 / 111 40% 1 26.10.2026 -
Martín Ortega Newell's Old Boys Aktiv 141 / 130 40% 1 23.10.2026 -
Jhomier Guerrero Millonarios Aktiv 129 / 123 40% 1 21.10.2026 -
Adrián Sánchez Belgrano Aktiv 137 / 115 40% 1 21.10.2026 -
Antony Alonso Deportivo Riestra Aktiv 140 / 104 40% 2 19.10.2026 -
Ramiro Hernandes Belgrano Aktiv 100 / 137 40% 1 19.10.2026 -
Dylan Borrero America de Cali Aktiv 128 / 133 40% 1 19.10.2026 -
Edwar López Deportes Tolima Aktiv 108 / 113 40% 1 18.10.2026 -
Pedro Ramírez Deportivo Riestra Aktiv 113 / 122 40% 1 16.10.2026 -
Gabriel Castillo Cortulua Aktiv 125 / 89 40% 1 16.10.2026 -
Eber Moreno Deportivo Pereira Aktiv 129 / 98 40% 1 15.10.2026 -
Julián Palacios Unión de Santa Fe Aktiv 130 / 130 40% 1 12.10.2026 -
Alan Lescano Argentinos Juniors Aktiv 146 / 124 40% 1 12.10.2026 -
Facundo Krüger Temperley Aktiv 108 / 104 40% 1 09.10.2026 -
Favio Cabral Mitre Aktiv 130 / 122 40% 1 08.10.2026 -
Efraín Álvarez Guadalajara Aktiv 121 / 118 40% 2 07.10.2026 -
Justo Giani Universidad Catolica Aktiv 109 / 132 40% 1 07.10.2026 -
Renzo Reynaga Patronato Aktiv 109 / 93 40% 1 06.10.2026 -
Facundo Castro Nueva Chicago Aktiv 94 / 109 40% 1 02.10.2026 -
Misael Sosa Godoy Cruz Aktiv 101 / 99 40% 1 25.09.2026 -
Guilherme Houston Dynamo Aktiv 129 / 124 40% 1 19.09.2026 -
Ho-yeon Jung Minnesota United FC Aktiv 119 / 125 40% 1 17.09.2026 -
Luther Billiat Ajax Cape Town Aktiv 131 / 146 40% 1 17.09.2026 -
Federico Viñas Toluca Aktiv 136 / 120 40% 1 14.09.2026 -
Harold Santiago Mosquera Cerro Porteno Aktiv 136 / 115 40% 2 13.09.2026 -
Job Ochieng Real Sociedad Aktiv 111 / 117 40% 1 12.09.2026 -
Ricardo Marín Guadalajara Aktiv 123 / 130 40% 1 12.09.2026 -
Víctor Felipe Méndez Colo-Colo Aktiv 111 / 124 40% 1 12.09.2026 -
David Lemos Antalyaspor Aktiv 120 / 118 40% 1 10.09.2026 -
Fabricio Corbalán Gimnasia La Plata Aktiv 105 / 139 40% 1 09.09.2026 -
Daniel González Universidad Catolica Aktiv 128 / 115 40% 1 09.09.2026 -
Tobías Donsanti Slovan Liberec Aktiv 97 / 94 40% 1 09.09.2026 -
Ayoub Jabbari FC Cincinnati Aktiv 98 / 114 40% 1 09.09.2026 -
Matías Gallegos Antofagasta Aktiv 89 / 82 40% 1 08.09.2026 -
Javier Altamirano Universidad de Chile Aktiv 106 / 128 40% 1 08.09.2026 -
Juan Pablo Gallego Fehervar Aktiv 109 / 92 40% 1 08.09.2026 -
Alan Cantero Alianza Lima Aktiv 114 / 110 40% 1 04.09.2026 -
Marcos Cuenca Zaragoza Aktiv 103 / 107 40% 2 30.08.2026 -
Clemente Montes Universidad Catolica Aktiv 115 / 113 40% 1 30.08.2026 -
Sebastián Ferreira Olimpia Aktiv 115 / 130 40% 1 28.08.2026 -
Alex Valera Universitario Aktiv 123 / 139 40% 2 26.08.2026 -
Rafael Navarro Colorado Rapids Aktiv 129 / 118 40% 1 24.08.2026 -
Iván Moreno Leon Aktiv 125 / 108 51% 1 17.08.2026 -
Michael Vadulli Audax Italiano Aktiv 92 / 95 40% 1 04.08.2026 -